QPF
0.00 0.00 0.00 0.00 0.00 0.00 0.00 0.00 0.00 0.00 0.00 0.00 0.00 0.00 0.00 0.00 0.00 0.00 0.00 0.00 0.00 0.00 0.00 0.01 0.02 0.04 0.04 0.04 0.05 0.04 0.04 0.04 0.05 0.06 0.06 0.06 0.04 0.04 0.05 0.05 0.05 0.04 0.06 0.06 0.05 0.05 0.04 0.04 0.04
0.00 0.00 0.00 0.00 0.00 0.00 0.00 0.00 0.00 0.00 0.00 0.00 0.00 0.00 0.00 0.00 0.00 0.00 0.00 0.00 0.00 0.00 0.00 0.01 0.02 0.03 0.04 0.07 0.06 0.05 0.05 0.06 0.06 0.06 0.07 0.08 0.07 0.05 0.05 0.05 0.06 0.04 0.03 0.04 0.04 0.04 0.04 0.03 0.03
0.00 0.00 0.00 0.00 0.00 0.00 0.00 0.00 0.00 0.00 0.00 0.00 0.00 0.00 0.00 0.00 0.00 0.00 0.00 0.00 0.00 0.00 0.00 0.01 0.02 0.03 0.04 0.08 0.06 0.05 0.05 0.06 0.07 0.07 0.06 0.06 0.06 0.05 0.04 0.04 0.04 0.03 0.03 0.03 0.03 0.03 0.03 0.03 0.03
0.00 0.00 0.00 0.00 0.00 0.00 0.00 0.00 0.00 0.00 0.00 0.00 0.00 0.00 0.00 0.00 0.00 0.00 0.00 0.00 0.00 0.00 0.00 0.01 0.02 0.03 0.04 0.07 0.10 0.08 0.09 0.10 0.10 0.09 0.07 0.05 0.04 0.03 0.03 0.03 0.03 0.02 0.04 0.05 0.05 0.04 0.02 0.03 0.03
0.00 0.00 0.00 0.00 0.00 0.00 0.00 0.00 0.00 0.00 0.00 0.00 0.00 0.00 0.00 0.00 0.00 0.00 0.00 0.00 0.00 0.00 0.00 0.01 0.02 0.03 0.04 0.04 0.09 0.14 0.12 0.11 0.11 0.12 0.10 0.06 0.04 0.03 0.03 0.03 0.03 0.03 0.02 0.04 0.05 0.03 0.02 0.02 0.03
0.00 0.00 0.00 0.00 0.00 0.00 0.00 0.00 0.00 0.00 0.00 0.00 0.00 0.00 0.00 0.00 0.00 0.00 0.00 0.00 0.00 0.00 0.00 0.01 0.02 0.03 0.04 0.04 0.06 0.08 0.10 0.09 0.08 0.09 0.07 0.05 0.03 0.03 0.03 0.03 0.03 0.03 0.02 0.03 0.02 0.02 0.02 0.01 0.01
0.00 0.00 0.00 0.00 0.00 0.00 0.00 0.00 0.00 0.00 0.00 0.00 0.00 0.00 0.00 0.00 0.00 0.00 0.00 0.00 0.00 0.00 0.00 0.01 0.01 0.01 0.02 0.04 0.04 0.04 0.06 0.06 0.05 0.04 0.03 0.03 0.03 0.03 0.02 0.03 0.03 0.03 0.02 0.02 0.02 0.01 0.01 0.01 0.01
0.00 0.00 0.00 0.00 0.00 0.00 0.00 0.00 0.00 0.00 0.00 0.00 0.00 0.00 0.00 0.00 0.00 0.00 0.00 0.00 0.00 0.00 0.00 0.01 0.01 0.01 0.01 0.01 0.02 0.02 0.02 0.02 0.03 0.02 0.01 0.02 0.02 0.02 0.02 0.03 0.03 0.02 0.02 0.02 0.02 0.01 0.01 0.01 0.00
0.00 0.00 0.00 0.00 0.00 0.00 0.00 0.00 0.00 0.00 0.00 0.00 0.00 0.00 0.00 0.00 0.00 0.00 0.00 0.00 0.00 0.00 0.00 0.01 0.01 0.01 0.01 0.01 0.01 0.01 0.01 0.01 0.01 0.01 0.01 0.01 0.02 0.02 0.02 0.02 0.03 0.02 0.02 0.02 0.02 0.02 0.01 0.01 0.01
0.00 0.00 0.00 0.00 0.00 0.00 0.00 0.00 0.00 0.00 0.00 0.00 0.00 0.00 0.00 0.00 0.00 0.00 0.00 0.00 0.00 0.00 0.01 0.01 0.01 0.01 0.01 0.01 0.01 0.01 0.01 0.01 0.01 0.01 0.01 0.01 0.01 0.01 0.02 0.02 0.03 0.03 0.03 0.02 0.02 0.02 0.01 0.01 0.00
0.00 0.00 0.00 0.00 0.00 0.00 0.00 0.00 0.00 0.00 0.00 0.00 0.00 0.00 0.00 0.00 0.00 0.00 0.00 0.00 0.00 0.00 0.00 0.01 0.01 0.01 0.01 0.01 0.01 0.01 0.02 0.01 0.01 0.01 0.00 0.00 0.00 0.00 0.01 0.01 0.02 0.03 0.04 0.02 0.01 0.01 0.01 0.01 0.01
0.00 0.00 0.00 0.00 0.00 0.00 0.00 0.00 0.00 0.00 0.00 0.00 0.00 0.00 0.00 0.00 0.00 0.00 0.00 0.00 0.00 0.00 0.00 0.00 0.01 0.01 0.01 0.01 0.01 0.01 0.01 0.01 0.01 0.00 0.00 0.00 0.00 0.00 0.00 0.01 0.02 0.02 0.03 0.02 0.01 0.01 0.01 0.01 0.01
0.00 0.00 0.00 0.00 0.00 0.00 0.00 0.00 0.00 0.00 0.00 0.00 0.00 0.00 0.00 0.00 0.00 0.01 0.01 0.01 0.01 0.00 0.00 0.00 0.01 0.01 0.01 0.01 0.01 0.01 0.02 0.02 0.01 0.01 0.00 0.00 0.00 0.00 0.00 0.00 0.01 0.02 0.02 0.03 0.02 0.01 0.01 0.00 0.01
0.00 0.00 0.00 0.00 0.00 0.00 0.00 0.00 0.00 0.00 0.00 0.00 0.00 0.00 0.00 0.00 0.00 0.01 0.01 0.01 0.01 0.01 0.01 0.01 0.01 0.01 0.01 0.01 0.01 0.01 0.01 0.02 0.02 0.02 0.01 0.01 0.00 0.00 0.00 0.00 0.01 0.01 0.02 0.02 0.02 0.02 0.01 0.01 0.00
0.00 0.00 0.00 0.00 0.00 0.00 0.00 0.00 0.00 0.00 0.00 0.00 0.00 0.00 0.00 0.00 0.00 0.01 0.01 0.01 0.01 0.01 0.01 0.01 0.01 0.01 0.01 0.01 0.01 0.01 0.01 0.01 0.01 0.02 0.01 0.01 0.01 0.01 0.00 0.00 0.00 0.01 0.02 0.02 0.02 0.02 0.02 0.01 0.01
0.00 0.00 0.00 0.00 0.00 0.00 0.00 0.00 0.00 0.00 0.00 0.00 0.00 0.00 0.00 0.00 0.00 0.00 0.01 0.01 0.01 0.01 0.01 0.01 0.01 0.01 0.01 0.01 0.01 0.01 0.01 0.01 0.01 0.01 0.02 0.02 0.02 0.02 0.01 0.01 0.00 0.00 0.01 0.02 0.02 0.02 0.02 0.01 0.01
0.00 0.00 0.00 0.00 0.00 0.00 0.00 0.00 0.00 0.00 0.00 0.00 0.00 0.00 0.00 0.00 0.00 0.00 0.00 0.01 0.01 0.01 0.01 0.02 0.02 0.02 0.01 0.01 0.02 0.02 0.02 0.02 0.02 0.02 0.02 0.02 0.02 0.02 0.02 0.01 0.01 0.01 0.01 0.01 0.02 0.02 0.02 0.02 0.01
0.00 0.00 0.00 0.00 0.00 0.00 0.00 0.00 0.00 0.00 0.00 0.00 0.00 0.00 0.00 0.00 0.00 0.00 0.00 0.00 0.01 0.01 0.02 0.02 0.02 0.02 0.02 0.03 0.03 0.03 0.02 0.02 0.02 0.02 0.02 0.02 0.02 0.02 0.02 0.02 0.02 0.01 0.01 0.01 0.02 0.02 0.02 0.02 0.02
0.00 0.00 0.00 0.00 0.00 0.00 0.00 0.00 0.00 0.01 0.00 0.00 0.00 0.00 0.00 0.00 0.00 0.00 0.00 0.00 0.01 0.02 0.03 0.03 0.03 0.03 0.03 0.03 0.03 0.03 0.02 0.02 0.02 0.03 0.03 0.03 0.03 0.02 0.02 0.03 0.03 0.02 0.03 0.02 0.02 0.02 0.03 0.03 0.02
0.01 0.01 0.00 0.00 0.00 0.00 0.00 0.00 0.01 0.01 0.01 0.00 0.00 0.00 0.00 0.00 0.00 0.00 0.00 0.00 0.01 0.01 0.02 0.04 0.03 0.03 0.03 0.03 0.02 0.02 0.02 0.02 0.03 0.03 0.03 0.03 0.03 0.02 0.02 0.02 0.02 0.03 0.04 0.04 0.03 0.03 0.03 0.04 0.03
0.01 0.01 0.00 0.01 0.00 0.00 0.01 0.01 0.01 0.01 0.01 0.00 0.00 0.00 0.00 0.00 0.00 0.00 0.00 0.00 0.01 0.01 0.02 0.03 0.04 0.03 0.03 0.03 0.03 0.03 0.03 0.03 0.04 0.03 0.03 0.03 0.02 0.03 0.03 0.02 0.03 0.03 0.03 0.04 0.05 0.04 0.04 0.05 0.05
0.01 0.01 0.00 0.01 0.01 0.01 0.01 0.01 0.01 0.01 0.00 0.00 0.00 0.00 0.00 0.00 0.00 0.00 0.00 0.00 0.00 0.01 0.01 0.02 0.03 0.03 0.03 0.04 0.04 0.04 0.03 0.03 0.03 0.03 0.04 0.04 0.03 0.03 0.04 0.02 0.02 0.03 0.03 0.04 0.05 0.06 0.05 0.05 0.06
0.01 0.00 0.00 0.00 0.01 0.01 0.01 0.01 0.01 0.01 0.00 0.00 0.00 0.00 0.00 0.00 0.00 0.01 0.01 0.01 0.01 0.01 0.01 0.01 0.02 0.04 0.04 0.03 0.04 0.04 0.04 0.04 0.03 0.03 0.04 0.05 0.04 0.03 0.02 0.02 0.02 0.03 0.03 0.04 0.04 0.05 0.06 0.05 0.04
0.00 0.00 0.00 0.00 0.01 0.01 0.01 0.01 0.01 0.01 0.01 0.00 0.00 0.00 0.00 0.00 0.01 0.01 0.01 0.02 0.02 0.02 0.01 0.01 0.02 0.03 0.04 0.04 0.04 0.04 0.04 0.04 0.04 0.04 0.03 0.03 0.03 0.03 0.02 0.02 0.03 0.03 0.04 0.05 0.04 0.04 0.06 0.06 0.06
0.00 0.01 0.01 0.02 0.02 0.01 0.01 0.01 0.01 0.01 0.01 0.01 0.01 0.01 0.00 0.00 0.01 0.01 0.01 0.01 0.02 0.02 0.01 0.02 0.02 0.03 0.03 0.03 0.04 0.04 0.04 0.04 0.04 0.04 0.03 0.03 0.02 0.02 0.02 0.02 0.01 0.02 0.03 0.05 0.06 0.06 0.05 0.06 0.06
0.01 0.01 0.01 0.02 0.01 0.01 0.01 0.01 0.01 0.01 0.01 0.01 0.01 0.00 0.00 0.00 0.01 0.01 0.01 0.02 0.02 0.02 0.02 0.03 0.03 0.03 0.03 0.03 0.03 0.04 0.04 0.04 0.03 0.03 0.04 0.05 0.04 0.02 0.02 0.01 0.01 0.02 0.02 0.03 0.05 0.07 0.07 0.07 0.07
0.01 0.01 0.01 0.02 0.02 0.01 0.01 0.01 0.01 0.01 0.01 0.01 0.00 0.00 0.00 0.01 0.01 0.01 0.02 0.02 0.02 0.03 0.03 0.03 0.03 0.03 0.03 0.04 0.04 0.03 0.04 0.04 0.03 0.03 0.03 0.04 0.06 0.06 0.05 0.03 0.02 0.02 0.02 0.02 0.03 0.04 0.05 0.07 0.08
0.01 0.01 0.01 0.03 0.03 0.02 0.01 0.01 0.01 0.01 0.01 0.01 0.00 0.00 0.01 0.01 0.01 0.01 0.02 0.03 0.03 0.03 0.03 0.03 0.03 0.04 0.04 0.04 0.04 0.04 0.04 0.04 0.03 0.03 0.03 0.03 0.04 0.06 0.07 0.07 0.06 0.05 0.04 0.03 0.03 0.03 0.03 0.04 0.05
0.01 0.01 0.02 0.03 0.03 0.03 0.02 0.01 0.01 0.01 0.01 0.01 0.01 0.01 0.01 0.01 0.01 0.01 0.02 0.02 0.02 0.03 0.03 0.03 0.03 0.03 0.03 0.03 0.03 0.03 0.04 0.04 0.04 0.04 0.03 0.03 0.04 0.04 0.04 0.06 0.06 0.06 0.05 0.04 0.03 0.03 0.03 0.03 0.03
0.00 0.01 0.01 0.03 0.03 0.03 0.02 0.02 0.01 0.01 0.01 0.01 0.01 0.01 0.01 0.01 0.01 0.01 0.01 0.01 0.01 0.02 0.02 0.02 0.03 0.03 0.02 0.02 0.02 0.02 0.02 0.02 0.03 0.03 0.03 0.03 0.03 0.04 0.04 0.03 0.04 0.05 0.05 0.05 0.04 0.04 0.03 0.03 0.03
MSLP
1014.93 1015.18 1015.48 1015.78 1015.99 1016.05 1015.94 1015.64 1015.20 1014.70 1014.22 1013.85 1013.65 1013.65 1013.81 1014.11 1014.44 1014.75 1014.96 1015.04 1015.01 1014.89 1014.73 1014.61 1014.55 1014.59 1014.72 1014.91 1015.14 1015.37 1015.56 1015.72 1015.83 1015.92 1016.01 1016.10 1016.20 1016.32 1016.45 1016.57 1016.69 1016.80 1016.90 1017.01 1017.12 1017.22 1017.31 1017.36 1017.36
1015.22 1015.46 1015.74 1015.97 1016.09 1016.06 1015.86 1015.49 1015.01 1014.51 1014.08 1013.78 1013.68 1013.79 1014.07 1014.45 1014.84 1015.18 1015.38 1015.44 1015.35 1015.17 1014.97 1014.79 1014.70 1014.72 1014.85 1015.05 1015.29 1015.53 1015.74 1015.91 1016.04 1016.15 1016.26 1016.37 1016.51 1016.66 1016.81 1016.96 1017.09 1017.21 1017.31 1017.41 1017.50 1017.59 1017.66 1017.71 1017.70
1015.47 1015.68 1015.88 1016.01 1016.03 1015.90 1015.61 1015.21 1014.74 1014.29 1013.94 1013.76 1013.79 1014.01 1014.39 1014.84 1015.28 1015.62 1015.81 1015.84 1015.72 1015.50 1015.27 1015.07 1014.97 1014.99 1015.11 1015.32 1015.56 1015.81 1016.03 1016.21 1016.36 1016.49 1016.63 1016.78 1016.96 1017.14 1017.32 1017.49 1017.62 1017.73 1017.80 1017.86 1017.91 1017.95 1017.99 1018.00 1017.98
1015.66 1015.80 1015.90 1015.92 1015.83 1015.61 1015.28 1014.88 1014.47 1014.12 1013.90 1013.87 1014.04 1014.37 1014.83 1015.33 1015.78 1016.11 1016.27 1016.27 1016.12 1015.90 1015.66 1015.47 1015.39 1015.42 1015.55 1015.76 1016.01 1016.25 1016.47 1016.65 1016.81 1016.97 1017.14 1017.33 1017.54 1017.76 1017.96 1018.13 1018.26 1018.33 1018.36 1018.36 1018.34 1018.32 1018.30 1018.27 1018.21
1015.77 1015.82 1015.82 1015.74 1015.56 1015.30 1014.97 1014.63 1014.32 1014.12 1014.08 1014.20 1014.50 1014.94 1015.45 1015.96 1016.38 1016.67 1016.80 1016.76 1016.60 1016.39 1016.17 1016.02 1015.97 1016.03 1016.18 1016.40 1016.64 1016.87 1017.07 1017.25 1017.42 1017.58 1017.77 1017.99 1018.22 1018.46 1018.68 1018.85 1018.95 1018.98 1018.95 1018.88 1018.78 1018.68 1018.60 1018.51 1018.43
1015.82 1015.80 1015.71 1015.55 1015.33 1015.08 1014.81 1014.58 1014.44 1014.43 1014.56 1014.85 1015.27 1015.77 1016.30 1016.77 1017.14 1017.36 1017.43 1017.36 1017.20 1017.00 1016.82 1016.71 1016.71 1016.80 1016.97 1017.19 1017.42 1017.63 1017.82 1017.98 1018.13 1018.29 1018.48 1018.70 1018.94 1019.19 1019.40 1019.55 1019.63 1019.62 1019.53 1019.39 1019.22 1019.05 1018.89 1018.76 1018.64
1015.86 1015.77 1015.64 1015.46 1015.26 1015.07 1014.93 1014.87 1014.92 1015.11 1015.43 1015.87 1016.37 1016.90 1017.40 1017.81 1018.08 1018.22 1018.21 1018.09 1017.92 1017.74 1017.60 1017.54 1017.57 1017.69 1017.88 1018.09 1018.30 1018.48 1018.64 1018.77 1018.90 1019.04 1019.21 1019.41 1019.64 1019.87 1020.06 1020.19 1020.24 1020.19 1020.05 1019.86 1019.63 1019.39 1019.18 1019.00 1018.85
1015.92 1015.81 1015.67 1015.52 1015.40 1015.34 1015.37 1015.52 1015.79 1016.19 1016.68 1017.23 1017.78 1018.30 1018.73 1019.04 1019.20 1019.22 1019.13 1018.96 1018.77 1018.60 1018.49 1018.45 1018.51 1018.64 1018.82 1019.01 1019.19 1019.35 1019.47 1019.56 1019.66 1019.76 1019.90 1020.08 1020.27 1020.46 1020.62 1020.72 1020.73 1020.65 1020.49 1020.26 1019.99 1019.71 1019.46 1019.24 1019.07
1016.05 1015.95 1015.85 1015.79 1015.79 1015.91 1016.14 1016.52 1017.01 1017.59 1018.22 1018.85 1019.42 1019.88 1020.22 1020.40 1020.44 1020.35 1020.17 1019.96 1019.74 1019.56 1019.46 1019.43 1019.48 1019.59 1019.74 1019.89 1020.03 1020.15 1020.23 1020.30 1020.36 1020.43 1020.53 1020.66 1020.80 1020.94 1021.05 1021.11 1021.09 1021.00 1020.82 1020.58 1020.30 1020.00 1019.72 1019.48 1019.29
1016.24 1016.18 1016.16 1016.22 1016.40 1016.72 1017.17 1017.76 1018.45 1019.20 1019.93 1020.59 1021.13 1021.52 1021.74 1021.80 1021.72 1021.53 1021.28 1021.02 1020.78 1020.59 1020.47 1020.42 1020.43 1020.49 1020.58 1020.68 1020.77 1020.84 1020.90 1020.94 1020.98 1021.02 1021.08 1021.15 1021.23 1021.31 1021.37 1021.38 1021.34 1021.23 1021.06 1020.83 1020.55 1020.26 1019.97 1019.72 1019.51
1016.48 1016.48 1016.58 1016.79 1017.15 1017.67 1018.34 1019.13 1019.98 1020.84 1021.63 1022.29 1022.78 1023.08 1023.19 1023.13 1022.95 1022.69 1022.39 1022.10 1021.84 1021.63 1021.48 1021.38 1021.32 1021.31 1021.32 1021.35 1021.38 1021.42 1021.45 1021.48 1021.51 1021.54 1021.56 1021.59 1021.61 1021.62 1021.62 1021.58 1021.51 1021.39 1021.23 1021.01 1020.76 1020.49 1020.21 1019.95 1019.73
1016.75 1016.83 1017.04 1017.40 1017.94 1018.65 1019.50 1020.45 1021.43 1022.36 1023.17 1023.80 1024.22 1024.43 1024.44 1024.30 1024.05 1023.74 1023.43 1023.13 1022.86 1022.63 1022.44 1022.27 1022.14 1022.03 1021.95 1021.90 1021.88 1021.88 1021.90 1021.94 1021.97 1022.00 1022.00 1021.99 1021.96 1021.90 1021.83 1021.75 1021.64 1021.51 1021.36 1021.16 1020.94 1020.69 1020.43 1020.18 1019.97
1017.01 1017.18 1017.50 1018.00 1018.69 1019.55 1020.55 1021.61 1022.67 1023.63 1024.43 1025.01 1025.36 1025.48 1025.42 1025.22 1024.94 1024.63 1024.32 1024.04 1023.78 1023.54 1023.31 1023.08 1022.86 1022.65 1022.47 1022.34 1022.27 1022.24 1022.27 1022.32 1022.38 1022.42 1022.43 1022.39 1022.31 1022.20 1022.06 1021.92 1021.78 1021.63 1021.47 1021.30 1021.10 1020.88 1020.65 1020.41 1020.20
1017.29 1017.53 1017.94 1018.54 1019.34 1020.30 1021.38 1022.51 1023.60 1024.56 1025.33 1025.86 1026.15 1026.22 1026.11 1025.89 1025.61 1025.32 1025.05 1024.80 1024.56 1024.32 1024.05 1023.77 1023.46 1023.16 1022.90 1022.70 1022.58 1022.54 1022.58 1022.66 1022.76 1022.82 1022.84 1022.79 1022.67 1022.51 1022.32 1022.12 1021.94 1021.76 1021.60 1021.43 1021.25 1021.06 1020.85 1020.64 1020.45
1017.61 1017.90 1018.36 1019.02 1019.87 1020.88 1021.99 1023.13 1024.22 1025.16 1025.89 1026.38 1026.63 1026.66 1026.54 1026.32 1026.07 1025.82 1025.60 1025.39 1025.18 1024.94 1024.66 1024.32 1023.95 1023.58 1023.25 1022.99 1022.84 1022.80 1022.85 1022.97 1023.10 1023.20 1023.23 1023.17 1023.04 1022.84 1022.60 1022.36 1022.13 1021.92 1021.74 1021.57 1021.41 1021.23 1021.04 1020.86 1020.69
1018.03 1018.34 1018.82 1019.47 1020.31 1021.29 1022.38 1023.50 1024.56 1025.46 1026.17 1026.63 1026.87 1026.90 1026.78 1026.59 1026.37 1026.17 1025.99 1025.83 1025.64 1025.42 1025.12 1024.76 1024.34 1023.92 1023.54 1023.24 1023.07 1023.02 1023.09 1023.23 1023.39 1023.52 1023.57 1023.52 1023.38 1023.15 1022.88 1022.60 1022.33 1022.10 1021.90 1021.72 1021.56 1021.39 1021.22 1021.06 1020.91
1018.62 1018.92 1019.35 1019.94 1020.70 1021.60 1022.61 1023.66 1024.66 1025.53 1026.22 1026.69 1026.93 1026.99 1026.92 1026.76 1026.59 1026.43 1026.28 1026.15 1025.98 1025.76 1025.46 1025.08 1024.64 1024.19 1023.79 1023.47 1023.28 1023.23 1023.30 1023.45 1023.63 1023.77 1023.84 1023.80 1023.65 1023.42 1023.13 1022.82 1022.53 1022.28 1022.06 1021.88 1021.71 1021.54 1021.38 1021.23 1021.10
1019.44 1019.68 1020.01 1020.47 1021.08 1021.84 1022.72 1023.66 1024.59 1025.43 1026.11 1026.60 1026.90 1027.01 1027.00 1026.90 1026.77 1026.64 1026.52 1026.39 1026.24 1026.02 1025.72 1025.33 1024.89 1024.44 1024.03 1023.70 1023.50 1023.43 1023.49 1023.63 1023.80 1023.95 1024.01 1023.97 1023.83 1023.60 1023.32 1023.01 1022.72 1022.46 1022.23 1022.04 1021.86 1021.69 1021.53 1021.38 1021.26
1020.50 1020.63 1020.80 1021.08 1021.48 1022.04 1022.75 1023.55 1024.38 1025.19 1025.88 1026.42 1026.79 1026.99 1027.06 1027.03 1026.95 1026.85 1026.74 1026.62 1026.45 1026.23 1025.94 1025.56 1025.14 1024.69 1024.29 1023.96 1023.74 1023.65 1023.68 1023.78 1023.92 1024.04 1024.09 1024.05 1023.92 1023.71 1023.44 1023.16 1022.88 1022.63 1022.40 1022.20 1022.02 1021.84 1021.66 1021.50 1021.37
1021.75 1021.74 1021.71 1021.75 1021.90 1022.21 1022.69 1023.32 1024.05 1024.82 1025.53 1026.15 1026.62 1026.93 1027.11 1027.16 1027.15 1027.08 1026.98 1026.85 1026.68 1026.46 1026.17 1025.82 1025.41 1025.00 1024.60 1024.27 1024.04 1023.91 1023.87 1023.92 1024.00 1024.06 1024.09 1024.04 1023.92 1023.74 1023.51 1023.26 1023.02 1022.79 1022.58 1022.38 1022.19 1022.00 1021.80 1021.61 1021.46
1023.09 1022.91 1022.67 1022.43 1022.29 1022.32 1022.56 1023.00 1023.61 1024.33 1025.07 1025.77 1026.36 1026.81 1027.11 1027.28 1027.34 1027.31 1027.23 1027.11 1026.94 1026.72 1026.45 1026.13 1025.76 1025.37 1025.00 1024.67 1024.40 1024.21 1024.11 1024.07 1024.06 1024.06 1024.04 1023.97 1023.86 1023.71 1023.53 1023.34 1023.14 1022.95 1022.77 1022.58 1022.38 1022.17 1021.95 1021.74 1021.55
1024.40 1024.05 1023.57 1023.06 1022.63 1022.37 1022.35 1022.59 1023.07 1023.74 1024.51 1025.29 1026.01 1026.61 1027.06 1027.35 1027.50 1027.54 1027.50 1027.40 1027.25 1027.05 1026.81 1026.52 1026.19 1025.84 1025.49 1025.14 1024.84 1024.59 1024.39 1024.25 1024.14 1024.06 1023.97 1023.88 1023.78 1023.66 1023.53 1023.39 1023.25 1023.11 1022.96 1022.78 1022.59 1022.36 1022.12 1021.88 1021.65
1025.54 1025.03 1024.34 1023.58 1022.88 1022.35 1022.09 1022.13 1022.48 1023.09 1023.88 1024.74 1025.58 1026.32 1026.92 1027.36 1027.62 1027.75 1027.77 1027.71 1027.59 1027.43 1027.22 1026.98 1026.70 1026.39 1026.05 1025.69 1025.35 1025.02 1024.73 1024.48 1024.26 1024.08 1023.93 1023.80 1023.69 1023.60 1023.51 1023.43 1023.35 1023.25 1023.13 1022.98 1022.79 1022.57 1022.31 1022.04 1021.79
1026.41 1025.78 1024.93 1023.97 1023.05 1022.30 1021.83 1021.69 1021.92 1022.47 1023.25 1024.17 1025.12 1025.99 1026.73 1027.30 1027.69 1027.91 1028.01 1028.01 1027.94 1027.83 1027.67 1027.48 1027.25 1026.97 1026.64 1026.28 1025.89 1025.50 1025.11 1024.74 1024.42 1024.15 1023.92 1023.75 1023.63 1023.55 1023.49 1023.46 1023.42 1023.36 1023.28 1023.15 1022.98 1022.76 1022.50 1022.23 1021.96
1026.99 1026.30 1025.35 1024.26 1023.19 1022.28 1021.65 1021.37 1021.48 1021.97 1022.73 1023.68 1024.69 1025.67 1026.52 1027.21 1027.70 1028.02 1028.20 1028.27 1028.26 1028.21 1028.11 1027.97 1027.79 1027.54 1027.23 1026.86 1026.43 1025.97 1025.50 1025.04 1024.61 1024.25 1023.96 1023.74 1023.59 1023.51 1023.47 1023.46 1023.45 1023.43 1023.37 1023.27 1023.12 1022.91 1022.68 1022.42 1022.16
1027.32 1026.61 1025.63 1024.51 1023.37 1022.37 1021.64 1021.26 1021.28 1021.69 1022.42 1023.35 1024.39 1025.41 1026.33 1027.10 1027.68 1028.08 1028.33 1028.47 1028.52 1028.53 1028.48 1028.40 1028.26 1028.05 1027.76 1027.38 1026.93 1026.41 1025.87 1025.33 1024.82 1024.38 1024.02 1023.75 1023.57 1023.48 1023.44 1023.43 1023.44 1023.43 1023.39 1023.31 1023.19 1023.02 1022.81 1022.59 1022.36
1027.48 1026.82 1025.88 1024.79 1023.66 1022.64 1021.87 1021.43 1021.38 1021.72 1022.37 1023.26 1024.26 1025.28 1026.22 1027.01 1027.64 1028.09 1028.40 1028.59 1028.70 1028.75 1028.76 1028.73 1028.63 1028.45 1028.18 1027.80 1027.34 1026.79 1026.20 1025.60 1025.03 1024.52 1024.10 1023.79 1023.57 1023.44 1023.38 1023.37 1023.37 1023.37 1023.34 1023.28 1023.18 1023.05 1022.89 1022.72 1022.55
1027.61 1027.02 1026.18 1025.17 1024.11 1023.14 1022.38 1021.91 1021.80 1022.06 1022.62 1023.42 1024.34 1025.29 1026.19 1026.97 1027.59 1028.06 1028.39 1028.62 1028.77 1028.87 1028.92 1028.93 1028.87 1028.72 1028.47 1028.11 1027.64 1027.09 1026.47 1025.83 1025.22 1024.67 1024.20 1023.83 1023.57 1023.40 1023.31 1023.27 1023.25 1023.24 1023.21 1023.17 1023.10 1023.01 1022.91 1022.80 1022.68
1027.83 1027.33 1026.60 1025.70 1024.75 1023.86 1023.13 1022.67 1022.51 1022.68 1023.13 1023.80 1024.60 1025.44 1026.25 1026.96 1027.54 1027.99 1028.32 1028.56 1028.74 1028.87 1028.95 1028.99 1028.96 1028.85 1028.63 1028.29 1027.84 1027.29 1026.67 1026.02 1025.38 1024.80 1024.29 1023.89 1023.58 1023.36 1023.22 1023.14 1023.09 1023.06 1023.03 1022.99 1022.95 1022.91 1022.87 1022.82 1022.76
1028.20 1027.77 1027.14 1026.36 1025.52 1024.71 1024.04 1023.58 1023.38 1023.46 1023.79 1024.32 1024.97 1025.67 1026.35 1026.96 1027.47 1027.88 1028.19 1028.43 1028.62 1028.77 1028.88 1028.95 1028.95 1028.87 1028.67 1028.36 1027.93 1027.40 1026.80 1026.16 1025.52 1024.92 1024.38 1023.93 1023.58 1023.31 1023.12 1022.99 1022.90 1022.84 1022.80 1022.77 1022.75 1022.75 1022.76 1022.77 1022.78
Thickness
5687 5689 5692 5692 5685 5681 5680 5685 5686 5684 5684 5685 5685 5687 5689 5688 5685 5679 5673 5676 5677 5676 5675 5673 5673 5674 5675 5675 5675 5675 5675 5676 5676 5677 5678 5678 5679 5680 5681 5681 5682 5683 5683 5684 5685 5686 5687 5688 5689
5684 5686 5687 5684 5677 5674 5678 5683 5679 5681 5681 5678 5678 5680 5681 5678 5674 5671 5669 5669 5670 5671 5670 5669 5668 5669 5669 5669 5669 5669 5670 5670 5670 5671 5672 5672 5673 5674 5675 5675 5676 5676 5677 5678 5679 5680 5681 5682 5683
5680 5682 5680 5676 5671 5676 5677 5678 5678 5674 5673 5673 5672 5672 5673 5670 5666 5664 5663 5663 5664 5664 5664 5663 5663 5663 5663 5663 5663 5663 5663 5663 5664 5664 5665 5666 5666 5667 5668 5668 5669 5670 5671 5672 5673 5674 5675 5676 5677
5677 5675 5672 5668 5666 5670 5674 5673 5671 5667 5666 5667 5668 5666 5662 5657 5657 5656 5656 5657 5657 5657 5658 5657 5656 5656 5656 5656 5656 5656 5656 5656 5657 5657 5658 5658 5659 5659 5660 5661 5662 5663 5664 5665 5666 5667 5668 5670 5671
5672 5670 5662 5660 5662 5666 5665 5665 5664 5665 5663 5662 5662 5661 5656 5649 5648 5648 5649 5649 5650 5650 5650 5650 5649 5649 5649 5649 5649 5649 5649 5649 5649 5650 5650 5650 5651 5651 5652 5653 5655 5656 5657 5658 5659 5660 5661 5663 5664
5664 5664 5659 5659 5661 5659 5659 5657 5657 5658 5657 5654 5654 5654 5650 5642 5641 5641 5641 5641 5641 5641 5641 5641 5640 5640 5641 5641 5641 5641 5641 5641 5641 5641 5641 5642 5642 5643 5644 5645 5646 5648 5649 5651 5652 5653 5654 5656 5657
5658 5656 5656 5658 5655 5654 5653 5651 5651 5653 5651 5648 5649 5648 5644 5637 5633 5632 5633 5633 5633 5632 5632 5632 5632 5632 5632 5632 5632 5632 5632 5632 5632 5632 5632 5632 5633 5634 5635 5636 5638 5639 5641 5642 5644 5645 5647 5648 5650
5653 5650 5647 5649 5649 5650 5647 5644 5643 5644 5643 5639 5639 5641 5638 5630 5624 5624 5624 5624 5624 5623 5623 5623 5624 5623 5623 5623 5622 5623 5623 5623 5623 5623 5623 5624 5624 5625 5626 5627 5629 5630 5632 5634 5635 5637 5638 5640 5642
5644 5641 5643 5645 5644 5644 5638 5636 5633 5631 5631 5627 5625 5625 5622 5619 5617 5616 5616 5616 5615 5614 5614 5614 5614 5614 5614 5614 5613 5613 5613 5613 5613 5613 5614 5614 5615 5616 5617 5618 5619 5621 5623 5625 5627 5628 5630 5632 5634
5636 5636 5639 5635 5636 5635 5629 5628 5625 5624 5623 5619 5616 5612 5609 5609 5609 5609 5609 5608 5607 5605 5605 5604 5604 5604 5604 5604 5604 5603 5603 5603 5604 5604 5604 5605 5606 5606 5607 5608 5610 5611 5613 5615 5618 5619 5622 5624 5627
5626 5628 5624 5621 5621 5622 5620 5617 5615 5618 5615 5612 5611 5606 5601 5599 5599 5600 5600 5599 5598 5596 5594 5594 5594 5594 5595 5594 5594 5594 5594 5593 5594 5594 5595 5595 5596 5597 5597 5599 5601 5603 5604 5607 5609 5611 5614 5616 5619
5615 5612 5612 5612 5609 5609 5610 5607 5603 5602 5603 5600 5600 5598 5593 5590 5590 5590 5589 5588 5586 5585 5584 5583 5583 5584 5584 5584 5584 5584 5584 5584 5583 5583 5584 5585 5586 5587 5588 5589 5591 5593 5595 5597 5600 5603 5606 5608 5610
5607 5603 5600 5598 5596 5596 5596 5595 5594 5590 5589 5588 5586 5585 5584 5582 5581 5579 5577 5576 5574 5574 5573 5572 5572 5572 5573 5573 5573 5573 5573 5573 5573 5572 5574 5574 5576 5577 5577 5578 5580 5583 5585 5588 5591 5594 5597 5599 5601
5597 5594 5591 5589 5589 5587 5587 5584 5582 5581 5579 5577 5576 5574 5573 5571 5570 5568 5566 5564 5563 5562 5561 5561 5560 5560 5561 5562 5562 5562 5562 5562 5562 5562 5562 5563 5564 5566 5567 5568 5570 5572 5575 5577 5580 5583 5586 5589 5592
5585 5585 5584 5582 5580 5577 5577 5579 5573 5571 5568 5567 5566 5564 5561 5559 5558 5556 5554 5553 5551 5550 5549 5548 5549 5549 5549 5550 5550 5550 5550 5550 5550 5550 5550 5551 5553 5555 5556 5558 5560 5562 5564 5567 5570 5573 5576 5578 5582
5579 5581 5584 5576 5570 5567 5569 5583 5566 5559 5557 5557 5555 5553 5550 5547 5545 5543 5541 5540 5539 5538 5537 5536 5536 5537 5537 5538 5538 5539 5539 5539 5539 5539 5540 5540 5541 5543 5545 5548 5549 5550 5553 5556 5559 5563 5566 5569 5572
5574 5576 5577 5570 5560 5558 5561 5569 5554 5546 5545 5545 5544 5542 5539 5536 5534 5531 5529 5528 5527 5526 5525 5525 5524 5525 5525 5525 5526 5526 5526 5527 5527 5527 5528 5529 5530 5531 5534 5536 5537 5539 5542 5545 5549 5552 5555 5558 5561
5569 5570 5566 5563 5552 5548 5551 5551 5542 5535 5533 5534 5533 5530 5527 5525 5522 5519 5517 5515 5514 5514 5513 5513 5512 5512 5512 5513 5513 5514 5514 5514 5515 5515 5516 5517 5518 5519 5521 5524 5526 5528 5531 5534 5537 5540 5543 5547 5550
5553 5554 5555 5549 5537 5536 5540 5539 5533 5527 5523 5522 5521 5519 5516 5512 5509 5505 5504 5503 5502 5502 5501 5501 5500 5499 5499 5500 5501 5502 5502 5502 5502 5503 5504 5505 5506 5507 5510 5512 5514 5516 5519 5522 5525 5529 5532 5535 5539
5539 5540 5542 5534 5524 5524 5525 5525 5522 5516 5509 5506 5505 5503 5500 5498 5496 5493 5491 5491 5490 5489 5488 5488 5487 5487 5486 5487 5487 5489 5490 5490 5490 5490 5492 5493 5494 5495 5497 5500 5503 5505 5507 5510 5513 5517 5521 5524 5527
5526 5527 5526 5519 5512 5507 5509 5523 5514 5504 5496 5491 5488 5486 5484 5483 5481 5478 5478 5478 5477 5476 5475 5474 5474 5474 5474 5474 5474 5476 5477 5478 5479 5480 5481 5481 5482 5483 5485 5488 5490 5493 5495 5498 5501 5505 5508 5512 5514
5518 5508 5504 5500 5503 5513 5502 5520 5516 5496 5487 5480 5476 5472 5469 5467 5465 5464 5463 5463 5462 5461 5460 5460 5460 5461 5461 5461 5462 5464 5467 5470 5470 5470 5469 5469 5470 5471 5473 5475 5478 5480 5483 5486 5489 5492 5496 5499 5502
5495 5487 5487 5486 5488 5491 5490 5491 5513 5479 5478 5471 5463 5458 5454 5451 5450 5448 5447 5446 5446 5445 5445 5445 5446 5446 5447 5448 5449 5451 5454 5456 5457 5458 5458 5458 5459 5460 5461 5462 5465 5468 5471 5473 5476 5480 5483 5487 5490
5474 5473 5473 5472 5476 5483 5481 5481 5501 5476 5466 5460 5450 5442 5438 5436 5434 5433 5431 5431 5430 5430 5431 5431 5432 5432 5433 5434 5436 5438 5440 5442 5444 5446 5446 5447 5448 5448 5449 5450 5453 5456 5458 5461 5464 5467 5470 5474 5478
5466 5472 5478 5478 5477 5484 5456 5460 5469 5450 5439 5435 5429 5426 5422 5419 5418 5417 5416 5416 5416 5415 5416 5417 5418 5419 5420 5421 5422 5425 5427 5429 5431 5433 5434 5435 5436 5438 5438 5439 5441 5444 5446 5449 5452 5455 5458 5462 5465
5453 5457 5466 5470 5475 5476 5442 5453 5452 5423 5415 5411 5407 5405 5403 5402 5401 5400 5399 5399 5399 5399 5400 5401 5403 5404 5405 5407 5409 5411 5414 5416 5418 5420 5422 5423 5425 5426 5427 5428 5429 5432 5434 5437 5439 5443 5446 5450 5453
5441 5441 5433 5436 5425 5434 5456 5440 5428 5409 5403 5398 5395 5392 5390 5387 5384 5383 5383 5383 5383 5383 5383 5385 5387 5389 5390 5392 5395 5398 5401 5403 5405 5407 5409 5411 5412 5414 5415 5416 5418 5420 5423 5425 5428 5432 5435 5438 5441
5421 5420 5420 5423 5429 5441 5448 5432 5432 5406 5400 5390 5385 5381 5377 5372 5370 5369 5367 5367 5366 5367 5368 5370 5372 5374 5376 5378 5381 5384 5387 5389 5392 5395 5397 5398 5400 5401 5403 5404 5406 5408 5411 5414 5417 5420 5423 5426 5429
5403 5400 5404 5409 5410 5422 5430 5430 5403 5394 5386 5379 5373 5366 5361 5358 5356 5354 5353 5352 5352 5353 5354 5355 5358 5360 5362 5364 5367 5371 5373 5375 5379 5382 5384 5386 5388 5389 5391 5393 5395 5397 5400 5402 5405 5408 5411 5414 5417
5390 5390 5390 5398 5396 5391 5400 5405 5376 5369 5365 5360 5357 5351 5346 5343 5341 5339 5339 5339 5339 5339 5340 5342 5343 5345 5348 5350 5353 5356 5359 5362 5366 5369 5371 5373 5375 5377 5379 5381 5383 5385 5388 5391 5394 5397 5399 5402 5405